Location: Chervonnoye
(48.6000°N, 34.4000°E)
Time: 16:32:52
(UTC+00:00)

Envisat - Pass Details

Date: 23 November 2020
Orbit: 764 x 766 km, 98.1° (Epoch: 28 January)

Event Time Altitude Azimuth Distance (km) Brightness Sun altitude
Rises 14:52:26 0° 173° (S) 3,219 6.4 -9.5°
Reaches altitude 10° 14:54:45 10° 176° (S) 2,297 5.7 -9.8°
Maximum altitude 14:59:47 65° 258° (WSW) 843 3.5 -10.6°
Drops below altitude 10° 15:04:52 10° 341° (NNW) 2,316 5.5 -11.4°
Sets 15:07:12 0° 344° (NNW) 3,247 6.2 -11.8°
